Muskegon, MI

8:32 PM EST on November 20, 2019 (GMT -0500)
Muskegon County

Weather History for KMKG - September, 2019

Change the Weather History Date:

Sunday, September 1, 2019

  Actual Average Record
Temperature  
Mean Temperature 64 °F 67 °F  
Max Temperature 68 °F 77 °F 95 °F (1953)
Min Temperature 59 °F 58 °F 40 °F (1906)
Degree Days  
Heating Degree Days 2 2  
Month to date heating degree days 1 2  
Since 1 July heating degree days 5 32  
Cooling Degree Days 0 4  
Month to date cooling degree days 0 4  
Year to date cooling degree days 545 511  
Growing Degree Days 14 (Base 50)    
Moisture  
Dew Point 55 °F    
Average Humidity 73    
Maximum Humidity 86    
Minimum Humidity 63    
Precipitation  
Precipitation T in 0.12 in 1.53 in (1905)
Month to date precipitation T 0.12  
Year to date precipitation 27.13 20.70  
Snow  
Snow 0.00 in 0.00 in T in (1952)
Month to date snowfall 0.0 0.0  
Since 1 July snowfall 0.0 0.0  
Since 1 September snowfall 0.0 0.0  
Snow Depth 0.00 in    
Sea Level Pressure  
Sea Level Pressure 30.16 in    
Wind  
Wind Speed 5 mph ()    
Max Wind Speed 10 mph    
Max Gust Speed 15 mph    
Visibility 10.0 miles    
Events Rain    
T = Trace of Precipitation, MM = Missing Value Source: Averaged Metar Reports

Daily Weather History Graph

Daily Weather History Graph

Search for Another Location

Airport or City:

Astronomy

Sep. 01, 2019 Rise Set
Actual Time 7:08 AM EDT 8:20 PM EDT
Civil Twilight 6:39 AM EDT 8:49 PM EDT
Nautical Twilight 6:04 AM EDT 9:24 PM EDT
Astronomical Twilight 5:27 AM EDT 10:01 PM EDT
Moon 9:41 AM EDT (9/1) 10:03 PM EDT (9/1)
Length of Visible Light 14h 09m
Length of Day
13h 11m
Waxing Crescent, 8% of the Moon is Illuminated
Sep 1
Waxing Crescent
Sep 5
First Quarter
Sep 14
Full
Sep 21
Last Quarter
Sep 28
New

Hourly Weather History & Observations

Time (EDT) Temp. Dew Point Humidity Pressure Visibility Wind Dir Wind Speed Gust Speed Precip Events Conditions
12:55 AM 64.0 °F 51.1 °F 63% 30.26 in 10.0 mi East 4.6 mph - N/A   Overcast
1:55 AM 63.0 °F 53.1 °F 70% 30.25 in 10.0 mi East 4.6 mph - 0.00 in Rain Light Rain
2:55 AM 61.0 °F 53.1 °F 75% 30.25 in 10.0 mi ESE 5.8 mph - 0.00 in   Overcast
3:55 AM 62.1 °F 54.0 °F 75% 30.24 in 10.0 mi SE 6.9 mph - N/A   Overcast
4:55 AM 61.0 °F 54.0 °F 78% 30.23 in 10.0 mi SE 9.2 mph - 0.00 in   Overcast
5:55 AM 61.0 °F 54.0 °F 78% 30.21 in 10.0 mi SE 10.4 mph - N/A   Overcast
6:55 AM 60.1 °F 54.0 °F 80% 30.21 in 10.0 mi ESE 5.8 mph - N/A   Mostly Cloudy
7:55 AM 60.1 °F 54.0 °F 80% 30.20 in 10.0 mi ESE 6.9 mph - N/A   Overcast
8:55 AM 61.0 °F 53.1 °F 75% 30.20 in 10.0 mi East 6.9 mph - N/A   Overcast
9:55 AM 62.1 °F 52.0 °F 70% 30.20 in 10.0 mi ENE 6.9 mph - N/A   Overcast
10:55 AM 63.0 °F 52.0 °F 67% 30.19 in 10.0 mi ESE 9.2 mph - N/A   Overcast
11:55 AM 64.0 °F 52.0 °F 65% 30.19 in 10.0 mi ESE 6.9 mph - N/A   Overcast
12:55 PM 66.0 °F 53.1 °F 63% 30.17 in 10.0 mi East 6.9 mph - N/A   Overcast
1:55 PM 66.0 °F 54.0 °F 65% 30.16 in 10.0 mi East 6.9 mph - N/A   Overcast
2:55 PM 68.0 °F 55.0 °F 63% 30.14 in 10.0 mi ENE 8.1 mph - N/A   Overcast
3:55 PM 68.0 °F 55.9 °F 65% 30.12 in 10.0 mi ESE 8.1 mph - N/A   Mostly Cloudy
4:55 PM 64.9 °F 57.0 °F 75% 30.11 in 10.0 mi East 4.6 mph - 0.00 in Rain Light Rain
5:55 PM 66.9 °F 57.9 °F 73% 30.09 in 10.0 mi East 5.8 mph - 0.00 in   Overcast
6:55 PM 66.0 °F 57.9 °F 75% 30.08 in 10.0 mi East 3.5 mph - N/A   Overcast
7:55 PM 66.0 °F 57.9 °F 75% 30.07 in 10.0 mi East 3.5 mph - N/A   Mostly Cloudy
8:55 PM 66.0 °F 57.9 °F 75% 30.07 in 10.0 mi East 3.5 mph - N/A   Mostly Cloudy
9:55 PM 63.0 °F 57.9 °F 84% 30.07 in 10.0 mi Calm Calm - N/A   Mostly Cloudy
10:55 PM 62.1 °F 57.0 °F 84% 30.08 in 10.0 mi Calm Calm - N/A   Mostly Cloudy
11:55 PM 62.1 °F 57.9 °F 86% 30.07 in 10.0 mi Calm Calm - N/A   Mostly Cloudy